Starlink 3304

operational
NORAD ID: 50161 Int'l Des: 2021-125 Owner: SPXS Country: US Constellation: starlink
LEOCIRCULAR

About Starlink 3304

Description loading...

Live Position

Loading 3D Globe...

Upcoming Passes

Altitude History

Altitude vs Time

uPlot chart will show altitude changes over time

Two-Line Element Set

1 50161U 21125F 25259.16289637 .00000426 00000-0 44828-4 0 9991
2 50161 53.2187 322.6058 0001351 88.8804 271.2343 15.08840930210107
Epoch: Sep 16, 2025 • Age: 10 hours

Current Status

Altitude 539.8 km
Velocity 7.59 km/s
Sub-Earth Point 8.05°N, 128.72°E
Launch Date Dec 18, 2021
Age 3.7 years
Type internet

Technical Details

Classification Payload
Mass 290.00 kg
Dry Mass 270.00 kg
Total Mass 290.00 kg
Length 0.20 m
Diameter 2.80 m
Span 9.00 m
Shape Box + pan
Manufacturer SPXS
Bus Type Starlink
Phase Status In Orbit
Owner/State SPXS/US

Large Constellations

Loading constellations...